Lapse_Rate
5.6 5.7 5.8 5.8 5.8 5.7 5.6 5.7 5.6 6.2 6.2 5.6 5.7 5.7 6.9 7.1 6.8 6.9 6.3 6.7 7.2 6.9 7.0 7.1 7.2 7.3 7.4 7.6 7.7 7.8 7.7 7.7 7.5 7.3 7.4 7.3 7.1 7.0 6.9 6.6 6.7 6.9 6.5 6.1
5.6 5.7 5.7 5.6 5.5 5.7 5.8 6.0 6.1 6.3 5.6 5.4 6.3 6.3 7.0 7.4 7.0 6.8 7.0 7.2 7.2 7.3 7.2 7.1 7.0 7.1 7.1 7.3 7.5 7.6 7.6 7.6 7.6 7.3 7.2 7.1 7.1 6.7 6.7 6.7 6.6 6.7 6.7 6.4
5.6 5.9 5.9 5.9 5.9 6.0 6.1 5.9 6.0 5.3 5.6 5.8 6.3 6.0 6.9 7.2 6.7 6.8 6.7 6.9 7.3 7.3 7.1 7.1 7.1 7.0 7.0 7.0 7.2 7.3 7.5 7.5 7.5 7.4 7.3 7.1 6.8 6.8 6.5 6.6 6.7 6.6 6.6 6.4
5.8 5.8 6.0 6.1 6.1 6.1 6.2 6.0 5.8 5.5 5.4 5.2 5.7 4.2 5.7 6.5 6.5 6.5 6.7 6.7 6.9 7.3 7.3 7.1 6.9 6.9 6.8 6.8 6.9 6.9 7.1 7.1 7.2 7.3 7.2 7.2 7.1 6.8 6.7 6.7 6.5 6.5 6.4 6.3
5.7 5.9 6.0 6.2 6.4 6.2 5.9 6.0 5.9 5.7 5.5 4.9 5.8 5.4 6.0 6.3 6.6 6.8 6.7 7.1 7.4 7.4 7.6 7.4 7.0 6.6 6.5 6.4 6.4 6.5 6.7 6.9 7.0 7.0 7.1 6.8 6.9 7.1 7.0 6.8 6.7 6.7 6.1 6.0
5.5 5.9 6.1 6.2 6.2 6.1 5.9 6.0 6.2 5.7 5.2 3.9 5.8 5.4 5.7 6.9 7.0 6.9 7.1 7.1 7.5 7.4 7.3 7.2 6.9 6.4 6.4 6.5 6.5 6.4 6.4 6.6 6.7 6.7 6.6 6.0 6.3 6.5 6.7 7.0 6.5 6.0 6.1 6.2
5.5 6.0 6.2 6.2 6.2 6.2 6.1 6.1 5.9 4.2 3.8 3.8 6.0 5.8 6.6 7.4 7.5 7.5 7.4 7.6 7.7 7.6 7.6 7.4 7.1 6.7 6.7 6.8 6.8 6.5 6.3 6.1 6.2 6.1 6.2 6.2 6.4 6.4 6.8 6.8 6.2 6.2 6.1 6.1
5.7 5.8 6.2 6.2 6.4 6.2 5.8 5.9 6.2 3.4 3.8 4.3 5.9 6.2 7.2 7.2 7.6 7.6 7.8 7.8 8.1 8.0 7.9 7.4 7.3 7.1 7.1 6.9 6.9 6.7 6.5 6.3 6.3 6.1 6.0 5.9 6.1 6.2 6.7 6.9 6.7 6.8 6.3 6.1
5.9 5.7 6.0 6.1 6.2 6.2 5.6 5.7 6.0 6.0 5.9 5.1 5.8 6.4 6.7 7.4 7.5 7.8 7.9 7.8 7.9 8.0 8.1 7.6 7.3 7.3 7.6 7.3 7.1 7.1 7.0 6.8 6.7 6.6 6.3 6.1 6.0 6.1 6.2 6.2 6.4 6.1 6.6 6.0
6.2 6.0 6.0 6.0 6.1 6.0 6.1 6.1 6.2 6.5 3.6 3.4 5.8 6.4 7.0 7.3 7.8 7.7 7.4 7.6 7.8 7.8 8.0 7.8 7.5 7.5 7.7 7.5 7.2 7.1 7.2 7.2 7.2 7.0 6.8 6.7 6.5 6.4 6.3 6.2 6.1 6.2 6.3 6.3
6.4 6.2 5.9 5.9 5.8 5.8 5.9 5.9 6.1 6.0 6.4 4.6 4.3 6.4 7.4 7.7 7.5 7.3 7.4 7.4 7.5 7.6 7.6 8.0 7.8 7.8 7.7 7.5 7.3 6.9 6.8 6.9 7.0 7.1 7.0 6.9 6.8 6.7 6.7 6.5 6.5 6.4 6.4 6.4
6.4 6.1 5.8 5.9 5.8 5.7 5.6 5.8 5.9 5.8 6.0 6.3 6.6 6.3 7.0 7.5 7.6 8.1 7.7 7.9 7.6 7.4 7.4 7.6 7.6 7.4 7.2 7.1 6.8 6.7 6.7 6.8 6.8 7.1 7.2 6.9 6.5 6.7 6.7 6.9 7.0 6.9 6.8 6.8
6.1 5.6 5.8 5.8 5.8 5.8 5.8 6.0 6.1 6.2 6.2 6.1 5.6 6.3 7.5 7.5 7.5 7.3 7.1 7.1 7.4 7.5 7.3 7.3 7.4 7.5 7.1 7.0 7.0 7.0 6.9 6.9 7.0 7.2 7.0 7.0 7.0 7.0 7.2 7.1 7.0 6.7 6.8 6.9
6.1 5.8 6.1 6.1 6.2 6.0 5.8 5.8 5.8 5.9 5.5 6.0 6.0 6.7 7.4 7.7 7.4 7.3 7.4 7.4 7.3 7.3 7.2 7.1 6.9 7.0 7.1 7.0 7.0 7.1 6.9 6.7 6.7 6.9 7.0 7.0 7.2 7.2 7.0 7.1 7.1 7.1 7.1 7.0
5.9 5.9 6.0 6.1 6.2 5.9 5.9 5.9 6.1 6.0 6.2 5.7 6.8 6.6 7.6 7.4 7.5 7.6 7.5 7.5 7.4 7.4 7.4 7.2 6.9 6.9 7.1 6.9 6.9 6.8 6.8 6.7 6.3 6.3 6.3 6.5 6.6 6.7 6.7 6.7 6.8 7.0 7.0 7.0
6.1 6.1 6.0 6.1 6.1 5.9 5.6 6.0 6.0 5.9 6.1 6.0 6.3 6.7 7.1 7.0 7.2 7.5 7.5 7.5 7.6 7.6 7.2 7.2 7.0 6.8 6.8 6.8 6.9 6.7 6.5 6.4 6.3 6.2 6.2 6.3 6.5 6.6 6.4 6.5 6.5 6.4 6.5 6.7
6.0 5.9 5.9 5.7 5.8 5.6 5.6 6.2 6.1 5.9 6.0 6.2 6.5 6.8 6.9 7.1 7.2 7.3 7.3 7.4 7.5 7.7 7.7 7.7 7.5 7.3 7.1 7.0 6.8 6.6 6.4 6.3 6.3 6.2 6.1 6.2 6.1 6.1 6.1 6.1 6.1 5.9 6.0 6.2
5.9 5.9 5.6 5.5 5.6 3.2 6.1 6.1 5.9 6.0 6.3 6.6 6.8 6.9 7.0 6.8 7.0 7.2 7.3 7.4 7.5 7.6 7.6 7.8 8.0 7.6 7.2 7.0 6.7 6.5 6.3 6.2 6.2 6.1 6.0 5.9 5.8 5.8 5.8 5.8 5.8 5.8 5.7 5.7
6.0 5.7 5.4 5.3 4.9 5.7 5.8 5.8 5.7 6.0 6.3 6.3 6.5 6.4 6.4 6.5 6.9 7.3 7.5 7.3 7.4 7.3 7.4 7.5 7.6 7.6 7.5 7.3 7.1 6.9 6.8 6.6 6.4 6.2 6.1 6.1 6.0 5.9 5.8 5.8 5.6 5.6 5.6 5.6
5.8 5.5 5.0 4.8 4.7 2.4 5.7 5.8 6.0 6.2 5.8 6.1 5.9 5.9 6.0 5.9 5.9 6.1 6.2 6.4 6.7 6.7 7.0 7.1 7.1 7.3 7.4 7.2 7.2 7.1 6.8 6.6 6.5 6.4 6.3 6.2 6.2 6.1 5.9 5.8 5.7 5.6 5.5 5.5
5.7 5.1 5.0 5.0 4.8 5.1 5.7 6.0 6.2 5.4 6.2 5.7 5.5 5.4 5.4 5.3 5.3 5.3 5.5 5.7 5.9 6.3 6.6 6.8 7.1 7.4 7.3 7.2 7.2 7.1 7.1 6.7 6.5 6.4 6.3 6.2 6.2 6.2 6.1 5.9 5.6 5.5 5.5 5.4
6.1 5.9 5.1 4.4 4.0 4.1 5.9 6.1 6.0 5.9 5.7 5.5 5.3 5.0 4.8 4.7 4.7 4.8 5.0 5.2 5.4 5.6 5.9 6.1 6.4 6.9 7.4 7.2 7.1 7.0 7.0 6.7 6.4 6.3 6.3 6.2 6.1 6.0 6.0 6.1 5.9 5.5 5.4 5.3
5.7 6.1 6.0 5.9 6.1 6.1 6.2 6.2 5.8 5.6 5.4 5.2 4.9 4.7 4.6 4.6 4.4 4.5 4.6 4.9 5.2 5.5 5.4 5.3 5.6 5.7 6.3 7.0 7.1 6.9 6.8 6.6 6.3 6.2 5.9 6.0 5.9 5.9 5.8 5.8 5.8 5.8 5.6 5.4
6.1 5.9 5.6 5.5 5.9 5.9 5.9 5.9 5.8 5.5 5.2 5.0 5.1 5.1 5.1 5.3 5.0 4.8 4.7 4.7 4.8 4.9 4.9 5.0 5.2 5.1 5.4 5.8 6.3 6.6 6.9 6.7 6.4 6.3 6.2 6.0 5.9 6.0 5.9 5.9 5.8 5.9 5.8 5.7
6.4 5.9 5.9 5.8 6.0 6.0 6.0 5.8 5.6 5.2 5.1 5.3 5.5 5.5 5.5 5.6 5.3 5.3 5.1 5.0 5.0 4.9 4.9 4.8 4.8 5.0 5.1 5.1 5.5 5.8 6.1 6.3 6.5 6.5 6.3 6.3 6.0 5.9 5.9 5.9 5.8 5.7 5.9 5.9
7.0 6.5 6.2 6.2 6.2 5.9 6.2 6.1 5.6 5.5 5.5 5.6 5.7 5.8 5.9 5.8 5.6 5.4 5.2 5.2 5.1 5.0 5.0 4.9 4.7 4.8 4.9 4.9 5.2 5.2 5.2 5.4 5.7 6.1 6.2 6.3 6.3 6.3 6.1 6.0 6.0 5.8 5.7 5.7
Wind_Speed
4 5 2 3 3 2 1 1 3 5 8 5 5 8 11 8 8 6 5 5 7 8 5 8 8 8 8 9 8 11 12 12 9 5 3 2 2 2 3 5 7 9 10 13
5 2 1 0 3 4 3 3 6 7 4 7 10 16 17 12 9 6 8 7 7 6 8 7 7 8 8 9 9 10 11 11 9 7 5 2 2 2 2 5 6 7 8 10
3 1 3 3 3 4 3 3 4 5 6 5 8 7 6 4 7 8 6 7 6 7 6 6 7 8 8 9 10 11 11 11 10 11 7 3 2 2 2 2 2 3 7 7
2 2 2 3 2 1 2 4 4 6 6 2 6 5 6 6 5 4 5 6 6 7 6 6 6 7 7 8 8 10 11 11 10 12 9 9 5 3 3 3 3 3 5 6
2 3 3 2 2 2 2 3 4 3 2 4 5 2 7 3 2 3 6 6 6 6 6 5 5 6 6 7 7 7 8 12 12 11 11 8 9 5 3 3 4 5 4 4
2 2 2 1 2 2 3 3 5 1 2 3 5 3 5 3 4 3 3 6 7 7 6 5 5 6 5 7 7 7 8 9 11 11 11 11 11 9 7 5 4 3 3 2
1 0 2 2 2 3 5 5 4 6 4 5 3 3 7 4 4 4 5 5 6 6 5 4 5 5 6 7 8 7 8 9 9 9 10 11 10 9 9 9 7 6 3 1
3 4 1 0 2 3 1 5 4 4 3 7 2 5 4 0 4 5 1 5 3 5 4 4 4 3 4 6 6 7 7 7 8 7 8 8 9 6 6 8 7 7 7 5
3 1 2 3 2 3 3 1 2 3 0 3 4 5 5 4 3 3 3 4 4 4 4 5 3 3 3 4 5 6 7 7 7 7 6 7 7 9 7 9 9 6 7 8
2 1 1 1 2 2 3 1 3 3 2 5 5 9 5 4 6 6 5 6 6 5 6 5 3 2 1 2 2 5 5 6 6 7 6 5 6 6 6 6 7 7 6 9
3 3 2 1 3 5 3 2 1 2 3 4 3 7 1 6 6 7 8 8 9 8 8 7 5 2 3 4 3 4 5 6 6 6 5 6 7 7 5 5 5 7 6 8
0 4 2 6 1 4 3 5 5 4 5 4 3 18 9 5 4 7 9 9 8 7 7 6 5 4 5 4 5 5 5 5 4 4 5 6 6 7 7 7 6 7 6 9
4 1 3 8 5 4 2 4 3 3 2 7 3 10 6 14 9 8 9 12 10 8 5 3 5 5 5 4 4 4 5 5 5 4 4 5 5 7 7 6 7 7 6 6
4 3 6 6 6 3 3 1 2 5 2 7 13 19 20 19 10 11 12 10 12 12 7 4 4 5 5 5 6 6 5 5 5 5 5 4 4 4 4 6 6 6 6 6
4 5 3 5 5 2 5 8 7 8 11 5 20 13 18 16 10 9 6 7 8 8 2 4 2 4 4 5 5 5 6 8 8 6 4 4 5 4 3 4 6 6 6 5
3 2 3 4 5 1 4 9 11 12 9 8 13 13 7 7 7 6 8 6 6 4 4 3 3 4 4 3 2 2 3 5 6 6 6 6 5 4 3 3 4 5 6 5
4 4 3 6 4 3 7 6 5 5 5 6 2 7 6 9 12 8 8 5 5 5 3 3 2 1 2 3 4 4 4 4 5 5 6 6 7 6 5 5 3 3 5 4
5 5 3 4 4 3 5 4 6 8 4 2 1 2 5 5 3 11 13 13 9 7 8 8 6 5 5 5 6 5 4 3 5 5 6 6 6 6 6 5 5 4 3 3
2 4 1 3 3 7 6 1 3 3 3 2 1 5 5 9 2 2 12 7 3 4 4 3 3 3 4 5 6 6 7 6 4 5 5 7 7 7 6 6 6 4 3 3
4 5 4 3 4 6 4 4 3 3 4 2 3 4 6 9 8 3 10 10 11 9 5 5 5 3 4 6 6 6 7 5 6 7 6 5 6 7 8 6 6 4 3 4
3 2 5 3 3 8 7 3 0 4 4 2 3 4 5 3 1 5 7 8 6 6 9 6 6 5 4 5 5 6 5 5 6 7 6 5 4 8 7 7 3 4 5 4
8 8 4 3 2 9 5 2 6 2 3 3 2 3 5 7 9 9 9 9 7 6 5 5 5 5 6 6 6 6 6 5 6 8 10 9 8 7 7 9 8 6 5 5
1 7 5 9 7 2 0 4 2 4 2 1 2 4 5 8 10 11 11 11 11 10 10 8 9 11 8 7 9 11 8 10 10 9 11 10 10 8 7 9 9 7 6 5
3 3 2 3 3 5 4 3 4 4 3 4 4 3 5 7 11 14 13 13 13 12 12 11 12 13 13 11 11 10 11 10 9 11 11 11 11 10 9 7 7 7 6 6
4 7 6 3 3 7 2 4 4 5 6 3 3 2 5 8 11 11 12 13 12 12 12 12 12 13 15 13 12 10 10 9 11 12 11 11 9 9 9 8 7 7 8 8
5 6 5 5 6 4 5 6 6 5 1 2 4 4 5 7 9 10 10 10 10 11 11 11 12 12 13 13 13 12 10 9 9 11 9 8 8 8 8 8 10 15 19 22
Wind_Direction
9 64 57 68 85 92 60 20 265 262 277 308 253 277 289 272 288 220 228 82 68 63 43 40 21 360 352 353 350 10 8 360 360 349 346 6 36 37 45 60 109 124 133 134
26 90 319 131 73 64 27 320 302 297 336 349 306 298 281 287 274 181 124 82 68 50 38 26 19 5 358 351 349 12 12 8 6 353 331 342 32 42 57 71 70 111 131 139
137 355 83 62 8 22 321 289 313 273 333 325 331 319 341 351 66 64 77 97 82 78 54 22 17 6 358 3 357 12 13 12 16 7 356 353 71 64 30 61 84 86 120 129
126 84 59 22 322 153 313 345 352 352 22 299 56 288 314 303 88 90 123 118 114 91 68 38 21 12 3 358 0 6 12 18 19 20 22 17 30 20 355 18 58 76 112 126
188 108 76 30 347 46 211 322 288 255 297 9 321 52 275 340 28 202 208 152 133 119 112 78 49 27 1 2 4 1 5 20 18 28 30 29 30 12 5 45 67 66 52 68
223 143 114 41 37 28 332 335 320 64 82 32 259 146 280 286 275 283 202 172 150 136 117 94 73 39 10 5 6 8 11 19 14 20 30 36 29 17 14 18 54 57 84 70
97 120 91 50 55 13 45 43 344 358 4 228 211 348 245 237 293 323 241 193 172 137 123 94 59 38 26 16 7 9 14 21 11 20 27 26 31 26 23 8 25 17 17 276
133 329 14 305 80 167 201 133 149 235 276 279 256 247 266 186 338 359 116 164 156 118 124 110 102 69 37 28 21 15 14 16 12 17 22 20 26 29 26 21 27 9 10 352
149 229 334 48 358 86 306 97 189 109 334 23 258 310 319 328 347 6 110 123 187 188 157 150 111 74 53 34 26 29 19 10 12 16 17 22 26 30 20 16 23 15 7 352
178 58 261 305 346 13 108 266 34 3 345 297 290 307 256 326 304 294 285 240 239 232 181 153 135 75 66 70 64 47 32 24 4 5 16 22 23 26 28 25 19 14 11 359
126 116 286 56 206 175 33 25 10 179 171 205 268 273 199 25 28 347 303 266 236 215 200 173 151 90 44 36 32 22 22 21 11 5 6 15 12 13 24 29 17 9 4 6
102 138 175 228 48 88 109 164 157 145 256 229 216 275 295 62 1 356 323 315 273 217 202 169 143 125 95 69 37 18 4 353 344 360 12 7 5 6 9 12 12 11 10 1
185 290 31 344 357 6 148 203 198 107 77 246 217 271 279 329 351 348 341 331 329 317 238 154 134 140 104 55 36 17 18 359 344 336 358 12 4 354 351 352 355 0 1 6
95 99 157 193 211 124 205 270 290 133 132 270 259 283 297 311 322 314 308 312 312 301 244 186 118 94 67 43 20 6 9 5 347 346 338 328 334 332 328 329 339 350 349 356
110 184 159 264 262 192 220 253 251 206 236 208 276 286 289 294 294 284 270 308 319 315 326 115 74 58 44 41 26 7 1 353 342 344 358 317 302 286 308 322 327 334 346 344
10 227 84 299 304 101 259 249 248 253 258 259 265 272 268 286 294 291 288 293 307 320 346 24 32 27 31 29 29 9 348 337 339 341 341 331 319 293 286 291 310 324 323 324
123 123 81 269 331 322 316 233 198 216 206 180 238 252 330 330 326 316 319 293 289 308 296 325 291 269 13 51 21 7 340 329 358 353 347 341 330 318 293 289 286 287 295 312
131 104 103 250 355 340 247 201 201 229 236 196 285 354 27 267 325 53 28 12 349 352 357 349 348 355 18 4 0 325 324 9 11 9 357 346 339 326 312 297 281 278 265 269
72 116 152 156 189 299 275 97 117 138 250 353 351 4 344 325 344 15 24 25 7 316 331 320 334 12 351 2 343 349 351 353 15 13 356 344 339 331 318 309 292 271 266 261
54 66 124 68 142 230 239 341 110 125 262 36 63 23 354 340 319 276 360 358 353 348 333 337 338 351 20 349 343 354 348 355 2 347 339 333 333 329 320 300 282 260 245 251
92 21 182 197 209 284 240 231 319 98 266 73 52 44 3 340 229 305 342 333 339 337 343 351 360 3 323 328 336 337 331 353 325 329 321 322 316 317 304 302 278 263 249 254
162 151 196 96 120 276 178 38 160 169 102 70 54 23 333 315 311 314 318 317 317 308 331 340 355 340 323 332 339 332 331 319 325 329 325 321 316 312 307 303 298 282 266 259
201 185 182 183 210 164 8 149 164 135 142 0 328 4 344 317 312 313 309 315 316 330 332 340 340 329 332 335 332 320 318 322 319 322 317 313 310 304 298 301 295 286 255 243
267 165 189 96 251 155 140 98 138 148 164 91 71 357 324 311 316 316 319 319 322 322 321 325 324 317 312 318 315 309 311 316 316 309 306 307 305 308 301 291 286 281 265 245
184 135 176 263 116 88 81 118 133 107 88 39 344 17 332 320 317 321 319 318 321 320 320 318 314 308 305 311 308 309 309 309 303 302 298 296 293 295 298 292 291 286 278 258
187 179 174 218 173 147 128 133 124 125 73 332 335 327 332 328 321 326 316 315 313 312 312 307 303 302 303 306 305 308 306 301 295 296 297 295 297 295 294 296 297 283 283 283